| time (UTC) | temp F | wind direction | speed knots | gust knots | rain 1hr in | rain 24hr in | rain mn in | humidity % | barometer mb |
| 20260504081504 | 44 | 240 | 1.7 | 0.0 | 0.00 | 0.00 | 0.00 | 63 | 1011.5 |
| 20260504070106 | 46 | 271 | 0.9 | 0.0 | 0.00 | 0.00 | 0.00 | 57 | 1011.6 |
| 20260504044548 | 43 | 248 | 0.9 | 0.0 | 0.00 | 0.00 | 0.00 | 58 | 1011.7 |
| 20260504043048 | 43 | 248 | 0.9 | 0.0 | 0.00 | 0.00 | 0.00 | 58 | 1011.7 |
| 20260504041546 | 43 | 248 | 0.9 | 0.0 | 0.00 | 0.00 | 0.00 | 57 | 1011.6 |
| 20260504040047 | 44 | 256 | 0.0 | 0.0 | 0.00 | 0.00 | 0.00 | 56 | 1011.5 |
| 20260504034542 | 45 | 256 | 0.9 | 0.0 | 0.00 | 0.00 | 0.00 | 54 | 1011.5 |
| 20260504033045 | 45 | 277 | 0.0 | 0.0 | 0.00 | 0.00 | 0.00 | 54 | 1011.4 |
| 20260504031553 | 46 | 249 | 0.0 | 0.0 | 0.00 | 0.00 | 0.00 | 54 | 1011.3 |
| 20260504030043 | 47 | 249 | 0.9 | 0.0 | 0.00 | 0.00 | 0.00 | 51 | 1011.4 |
| 20260504024539 | 47 | 259 | 0.0 | 0.0 | 0.00 | 0.00 | 0.00 | 50 | 1011.3 |
| 20260504023039 | 47 | 261 | 0.9 | 0.0 | 0.00 | 0.00 | 0.00 | 48 | 1011.3 |
| 20260504021539 | 47 | 249 | 0.9 | 0.0 | 0.00 | 0.00 | 0.00 | 47 | 1011.3 |
| 20260504020038 | 46 | 253 | 0.9 | 0.0 | 0.00 | 0.00 | 0.00 | 47 | 1011.4 |
| 20260504014541 | 47 | 254 | 0.0 | 0.0 | 0.00 | 0.00 | 0.00 | 48 | 1011.2 |
| 20260504013041 | 48 | 254 | 0.0 | 0.0 | 0.00 | 0.00 | 0.00 | 46 | 1011.0 |
| 20260504011539 | 48 | 259 | 0.0 | 0.0 | 0.00 | 0.00 | 0.00 | 45 | 1010.9 |
| 20260504010032 | 49 | 276 | 0.9 | 0.0 | 0.00 | 0.00 | 0.00 | 45 | 1010.7 |
| 20260504004534 | 49 | 248 | 0.9 | 0.0 | 0.00 | 0.00 | 0.00 | 45 | 1010.5 |
| 20260504003033 | 49 | 264 | 0.9 | 0.0 | 0.00 | 0.00 | 0.00 | 46 | 1010.2 |
| 20260504001536 | 49 | 266 | 0.9 | 0.0 | 0.00 | 0.00 | 0.00 | 45 | 1009.9 |
| 20260504000031 | 50 | 265 | 0.9 | 0.0 | 0.00 | 0.00 | 0.00 | 43 | 1009.9 |
| 20260503234539 | 50 | 285 | 0.9 | 0.0 | 0.00 | 0.00 | 0.00 | 42 | 1009.7 |
| 20260503233036 | 51 | 294 | 0.9 | 0.0 | 0.00 | 0.00 | 0.00 | 41 | 1009.6 |
| 20260503231533 | 52 | 302 | 2.6 | 0.0 | 0.00 | 0.00 | 0.00 | 39 | 1009.4 |
| 20260503230028 | 53 | 288 | 2.6 | 0.0 | 0.00 | 0.00 | 0.00 | 38 | 1009.4 |
| 20260503224528 | 53 | 307 | 3.5 | 0.0 | 0.00 | 0.00 | 0.00 | 38 | 1009.3 |
| 20260503223026 | 53 | 267 | 3.5 | 0.0 | 0.00 | 0.00 | 0.00 | 38 | 1009.2 |
| 20260503221532 | 53 | 338 | 5.2 | 0.0 | 0.00 | 0.00 | 0.00 | 38 | 1009.2 |
| 20260503220026 | 53 | 284 | 5.2 | 0.0 | 0.00 | 0.00 | 0.00 | 39 | 1009.2 |
| 20260503214525 | 53 | 288 | 4.3 | 0.0 | 0.00 | 0.00 | 0.00 | 39 | 1009.1 |
| 20260503213024 | 52 | 287 | 5.2 | 0.0 | 0.00 | 0.00 | 0.00 | 40 | 1009.1 |
| 20260503211522 | 53 | 337 | 4.3 | 0.0 | 0.00 | 0.00 | 0.00 | 40 | 1009.1 |
| 20260503210019 | 52 | 287 | 2.6 | 0.0 | 0.00 | 0.00 | 0.00 | 44 | 1009.1 |
| 20260503204520 | 52 | 319 | 4.3 | 0.0 | 0.00 | 0.00 | 0.00 | 44 | 1008.9 |
| 20260503203017 | 51 | 278 | 3.5 | 0.0 | 0.00 | 0.00 | 0.00 | 43 | 1009.0 |
| 20260503201515 | 51 | 113 | 6.1 | 0.0 | 0.00 | 0.00 | 0.00 | 44 | 1009.2 |
| 20260503200016 | 51 | 296 | 5.2 | 0.0 | 0.00 | 0.00 | 0.00 | 44 | 1008.9 |
| 20260503194514 | 51 | 252 | 5.2 | 0.0 | 0.00 | 0.00 | 0.00 | 44 | 1009.0 |
| 20260503193013 | 50 | 288 | 4.3 | 0.0 | 0.00 | 0.00 | 0.00 | 45 | 1008.9 |
| 20260503191512 | 50 | 334 | 7.0 | 0.0 | 0.00 | 0.00 | 0.00 | 42 | 1008.8 |
| 20260503190012 | 51 | 312 | 7.0 | 0.0 | 0.00 | 0.00 | 0.00 | 42 | 1008.8 |
| 20260503184516 | 51 | 289 | 6.1 | 0.0 | 0.00 | 0.00 | 0.00 | 43 | 1009.0 |
| 20260503183014 | 51 | 271 | 5.2 | 0.0 | 0.00 | 0.00 | 0.00 | 43 | 1009.0 |
| 20260503181510 | 51 | 286 | 5.2 | 0.0 | 0.00 | 0.00 | 0.00 | 43 | 1008.8 |
| 20260503180010 | 50 | 248 | 4.3 | 0.0 | 0.00 | 0.00 | 0.00 | 42 | 1008.8 |
| 20260503174507 | 50 | 314 | 5.2 | 0.0 | 0.00 | 0.00 | 0.00 | 44 | 1008.8 |
| 20260503173005 | 49 | 296 | 4.3 | 0.0 | 0.00 | 0.00 | 0.00 | 48 | 1009.0 |
| 20260503171505 | 50 | 282 | 4.3 | 0.0 | 0.00 | 0.00 | 0.00 | 52 | 1009.1 |